DL6MB-14 Weather Reports


Display with metric or nautical units.
time (UTC)temp
F
wind
direction
speed
MPH
gust
MPH
rain 1hr
in
rain 24hr
in
rain mn
in
humidity
%
barometer
mb
20260506102555 47 41 3.0 6.0 0.03 0.58 0.54 94 1006.9
20260506101532 46 43 3.0 7.0 0.04 0.58 0.54 94 1007.0
20260506100529 46 32 2.0 4.0 0.04 0.57 0.53 94 1006.8
20260506095524 46 45 4.0 10.0 0.05 0.57 0.53 94 1006.8
20260506094521 46 42 3.0 10.0 0.06 0.57 0.53 94 1006.8
20260506093517 46 37 2.0 6.0 0.06 0.56 0.52 94 1006.6
20260506092533 45 55 3.0 6.0 0.06 0.55 0.51 94 1006.7
20260506091550 45 34 3.0 7.0 0.06 0.54 0.50 95 1006.6
20260506090525 45 34 3.0 8.0 0.06 0.53 0.49 95 1006.6
20260506085522 45 43 3.0 8.0 0.06 0.52 0.48 95 1006.5
20260506084518 45 26 4.0 10.0 0.06 0.51 0.47 95 1006.5
20260506083534 46 36 2.0 7.0 0.06 0.50 0.46 95 1006.5
20260506082529 45 43 4.0 9.0 0.06 0.49 0.45 95 1006.3
20260506081546 46 29 4.0 7.0 0.06 0.48 0.44 95 1006.3
20260506080522 46 24 1.0 4.0 0.06 0.47 0.43 95 1006.3
20260506072527 46 30 3.0 7.0 0.06 0.43 0.39 95 1006.1
20260506071523 46 28 3.0 10.0 0.06 0.42 0.38 95 1006.0
20260506070519 46 39 3.0 8.0 0.06 0.41 0.37 95 1005.9
20260506061518 47 48 3.0 9.0 0.05 0.39 0.32 96 1005.7
20260506060533 47 19 3.0 7.0 0.05 0.38 0.31 96 1005.5
20260506050550 48 23 2.0 4.0 0.05 0.34 0.26 96 1005.5
20260506044523 48 355 2.0 4.0 0.05 0.32 0.24 96 1005.4
20260506043519 48 354 2.0 6.0 0.05 0.32 0.23 96 1005.5
20260506042535 48 16 3.0 8.0 0.04 0.31 0.22 96 1005.4
20260506041531 49 342 2.0 7.0 0.05 0.32 0.22 96 1005.5
20260506040526 49 3 2.0 4.0 0.05 0.31 0.21 96 1005.5
20260506035523 49 19 2.0 3.0 0.05 0.30 0.20 96 1005.6
20260506034519 49 27 2.0 6.0 0.04 0.29 0.19 96 1005.6
20260506033556 49 49 1.0 3.0 0.04 0.28 0.18 96 1005.6
20260506032530 49 39 2.0 4.0 0.05 0.28 0.18 96 1005.8
20260506031545 49 29 2.0 6.0 0.05 0.27 0.17 96 1005.7
20260506030522 49 35 3.0 9.0 0.04 0.26 0.16 96 1005.8
20260506025519 49 23 2.0 4.0 0.04 0.25 0.15 96 1005.9
20260506024533 49 57 2.0 4.0 0.05 0.25 0.15 96 1006.0
20260506023530 49 41 3.0 8.0 0.04 0.24 0.14 96 1006.0
20260506022547 49 39 3.0 8.0 0.04 0.23 0.13 96 1006.0
20260506021523 49 18 2.0 6.0 0.04 0.22 0.12 96 1006.1
20260506020539 49 29 2.0 7.0 0.04 0.22 0.12 96 1006.2
20260506015516 49 20 3.0 7.0 0.04 0.21 0.11 96 1006.1
20260506014531 49 35 3.0 7.0 0.04 0.20 0.10 96 1006.1
20260506013527 49 38 2.0 4.0 0.04 0.20 0.10 96 1006.2
20260506012523 49 28 3.0 7.0 0.04 0.19 0.09 96 1006.3
20260506011520 49 19 2.0 6.0 0.04 0.18 0.08 96 1006.3
20260506010515 49 13 2.0 6.0 0.04 0.19 0.08 96 1006.3
20260506005532 49 32 2.0 6.0 0.04 0.18 0.07 96 1006.5
20260506004548 49 45 2.0 6.0 0.03 0.17 0.06 96 1006.5
20260506003543 49 34 2.0 8.0 0.04 0.18 0.06 96 1006.5
20260506002519 49 31 3.0 6.0 0.03 0.17 0.05 96 1006.6
20260506001535 49 45 3.0 7.0 0.03 0.17 0.04 95 1006.7
20260506000531 49 36 2.0 6.0 0.03 0.17 0.04 95 1006.8
20260505235528 49 11 2.0 4.0 0.03 0.17 0.03 95 1006.9
20260505234545 49 35 2.0 7.0 0.03 0.17 0.03 95 1007.1
20260505233521 49 7 3.0 7.0 0.02 0.17 0.02 95 1007.1
20260505232518 49 15 2.0 4.0 0.02 0.17 0.02 95 1007.1
20260505231534 49 18 2.0 7.0 0.01 0.17 0.01 94 1007.1
20260505230531 49 25 3.0 10.0 0.01 0.18 0.01 94 1007.1
20260505225548 49 14 3.0 6.0 0.00 0.17 0.00 94 1007.3
20260505224524 49 12 2.0 7.0 0.00 0.18 0.00 93 1007.3
20260505223521 49 23 3.0 8.0 0.00 0.18 0.00 93 1007.5
20260505222517 49 29 3.0 8.0 0.00 0.18 0.00 93 1007.5
20260505221533 50 14 3.0 7.0 0.00 0.18 0.00 93 1007.5
20260505220528 49 15 2.0 6.0 0.01 0.18 0.00 93 1007.4
20260505215525 49 31 3.0 7.0 0.01 0.18 0.18 94 1007.5
20260505214540 50 1 2.0 7.0 0.01 0.18 0.18 94 1007.6
20260505213517 50 40 2.0 4.0 0.01 0.18 0.18 94 1007.8
20260505212533 50 33 3.0 7.0 0.02 0.18 0.18 94 1007.9
20260505211530 50 41 3.0 8.0 0.02 0.19 0.18 94 1007.9
20260505210525 50 17 2.0 4.0 0.01 0.18 0.17 94 1007.9
20260505205521 50 6 2.0 6.0 0.01 0.18 0.17 94 1007.9
20260505204517 50 31 3.0 7.0 0.01 0.18 0.17 94 1007.9
20260505203553 51 28 2.0 9.0 0.01 0.18 0.17 93 1008.1
20260505202529 51 13 2.0 4.0 0.00 0.17 0.16 93 1008.0
20260505201525 51 347 0.0 1.0 0.00 0.17 0.16 92 1008.0
20260505200541 51 13 1.0 3.0 0.00 0.17 0.16 92 1008.1
20260505195517 51 30 1.0 3.0 0.00 0.17 0.16 91 1007.9
20260505194533 51 31 1.0 4.0 0.00 0.17 0.16 90 1008.0
20260505193649 51 38 1.0 3.0 0.00 0.17 0.16 89 1007.9
20260505192525 52 49 1.0 4.0 0.00 0.18 0.16 88 1007.8
20260505191522 52 58 1.0 3.0 0.00 0.18 0.16 87 1007.9
20260505190519 52 42 1.0 4.0 0.00 0.19 0.16 86 1007.7
20260505185556 52 36 2.0 8.0 0.00 0.21 0.16 86 1007.7
20260505184531 52 34 2.0 6.0 0.00 0.23 0.16 86 1007.8
20260505183529 52 38 2.0 7.0 0.00 0.26 0.16 86 1007.8
20260505182524 52 20 2.0 6.0 0.00 0.30 0.16 86 1007.8
20260505181521 52 46 3.0 9.0 0.00 0.32 0.16 87 1007.7
20260505180517 52 23 2.0 8.0 0.00 0.32 0.16 87 1007.7
20260505175534 52 49 2.0 7.0 0.00 0.33 0.16 88 1007.8
20260505174530 52 31 2.0 4.0 0.00 0.36 0.16 88 1007.9
20260505173526 51 35 2.0 4.0 0.00 0.39 0.16 88 1008.0
20260505172543 51 37 2.0 4.0 0.00 0.39 0.16 88 1007.9
20260505171519 51 36 2.0 6.0 0.00 0.39 0.16 88 1007.8
20260505170515 51 38 1.0 4.0 0.00 0.39 0.16 89 1007.9
20260505165531 51 44 2.0 7.0 0.01 0.39 0.16 89 1008.1
20260505164528 51 36 2.0 6.0 0.01 0.39 0.16 89 1008.1
20260505163524 51 29 2.0 4.0 0.01 0.39 0.16 89 1008.1
20260505162520 51 33 3.0 6.0 0.01 0.39 0.16 90 1008.0
20260505161517 51 19 3.0 6.0 0.01 0.39 0.16 90 1008.2
20260505160532 51 24 3.0 8.0 0.01 0.39 0.16 90 1008.2
20260505152518 51 33 4.0 8.0 0.00 0.38 0.15 90 1008.4
20260505151533 51 34 3.0 7.0 0.00 0.38 0.15 91 1008.5
20260505150528 51 27 3.0 6.0 0.00 0.38 0.15 91 1008.6
20260505140546 50 37 3.0 6.0 0.00 0.38 0.15 92 1009.0
20260505124517 50 21 3.0 8.0 0.00 0.38 0.15 94 1009.3
20260505123533 50 24 2.0 4.0 0.00 0.38 0.15 94 1009.5
20260505122529 49 9 2.0 7.0 0.00 0.38 0.15 94 1009.5
20260505121525 49 23 2.0 7.0 0.00 0.38 0.15 94 1009.5
20260505120542 49 10 3.0 8.0 0.00 0.38 0.15 94 1009.5
20260505115519 49 19 2.0 4.0 0.00 0.38 0.15 94 1009.6
20260505114515 49 19 3.0 9.0 0.01 0.38 0.15 94 1009.7
20260505113532 49 36 2.0 6.0 0.01 0.38 0.15 94 1009.6
20260505112529 49 44 2.0 7.0 0.01 0.38 0.15 94 1009.7
20260505111524 49 58 3.0 9.0 0.01 0.38 0.15 94 1009.8
20260505110520 49 39 3.0 6.0 0.01 0.38 0.15 94 1009.8